Starlink 11515

operational
NORAD ID: 62556 Int'l Des: 2025-006 Owner: SPXS Country: US Constellation: starlink
LEOCIRCULAR

Starlink 11515について

説明を読み込み中...

リアルタイム位置

3D地球を読み込み中...

次回通過

高度履歴

Altitude vs Time

uPlot chart will show altitude changes over time

軌道要素

1 62556U 25006C 25300.51299882 .00241906 00000-0 18290-2 0 9995
2 62556 43.0003 222.9578 0000718 328.6777 31.4048 15.70909919 45657
Epoch: Oct 27, 2025 • Age: 56 hours

現在のステータス

高度 366.3 km
速度 7.69 km/s
衛星直下点 -43.15°S, 133.45°E
打ち上げ日 Jan 10, 2025
運用期間 0.7 years
タイプ internet

技術仕様

分類 Payload
質量 960.00 kg
乾燥質量 910.00 kg
総質量 960.00 kg
長さ 0.30 m
直径 4.10 m
スパン 29.00 m
形状 Box + pan
製造者 SPXS
バスタイプ Starlink V2MD
フェーズステータス In Orbit
所有者/国 SPXS/US

大規模コンステレーション

Loading constellations...